�N����,����,�g�[���i�䏊�j���x,�g�[�����x,��g�[���i���ցj���x,����
 2003/01/01, 0:00,19.8,51,9.7,9.6
 2003/01/01, 0:15,18.2,50,9.8,9.6
 2003/01/01, 0:30,17.7,50,9.9,9.6
 2003/01/01, 0:45,17.8,49,9.8,9.7
 2003/01/01, 1:00,17.1,50,9.8,10
 2003/01/01, 1:15,17.4,50,9.8,10
 2003/01/01, 1:30,17.1,52,9.5,10
 2003/01/01, 1:45,17,52,9.4,10
 2003/01/01, 2:00,16.9,52,9.4,10
 2003/01/01, 2:15,16.5,52,9.2,10
 2003/01/01, 2:30,16.5,52,9.1,10.1
 2003/01/01, 2:45,16.1,53,9.2,9
 2003/01/01, 3:00,16.1,52,9.2,9.9
 2003/01/01, 3:15,16.1,52,9.2,9.9
 2003/01/01, 3:30,15.8,53,9.2,9.9
 2003/01/01, 3:45,15.7,53,9.1,9.9
 2003/01/01, 4:00,15.4,54,9.2,10.2
 2003/01/01, 4:15,15.4,54,9.1,10.2
 2003/01/01, 4:30,15.3,54,9,10.2
 2003/01/01, 4:45,15.1,54,8.9,10.3
 2003/01/01, 5:00,15,54,8.6,10.3
 2003/01/01, 5:15,14.6,55,8.6,10.3
 2003/01/01, 5:30,14.7,54,8.3,10.3
 2003/01/01, 5:45,14.7,54,8.3,10.3
 2003/01/01, 6:00,14.4,55,8.1,10.3
 2003/01/01, 6:15,14.3,55,8.1,10.3
 2003/01/01, 6:30,14.1,56,8,10.3
 2003/01/01, 6:45,14.1,55,7.9,10.3
 2003/01/01, 7:00,13.9,56,7.8,10.3
 2003/01/01, 7:15,13.5,54,8,10.3
 2003/01/01, 7:30,13.5,53,8,10.1
 2003/01/01, 7:45,13.1,50,8,10.5
 2003/01/01, 8:00,19.5,42,8,10.5
 2003/01/01, 8:15,16.8,48,8.1,10.1
 2003/01/01, 8:30,14.8,48,8.1,10.1
 2003/01/01, 8:45,14.5,46,8.2,10.1
 2003/01/01, 9:00,14.2,46,8.2,10.1
 2003/01/01, 9:15,13.5,46,8.4,10.1
 2003/01/01, 9:30,13.3,46,8.4,10.1
 2003/01/01, 9:45,13.5,44,8.4,10.1
 2003/01/01,10:00,13.1,45,8.4,10.1
 2003/01/01,10:15,13.2,44,8.6,10.1
 2003/01/01,10:30,12.9,44,8.8,10.1
 2003/01/01,10:45,16.9,37,8.7,9.4
 2003/01/01,11:00,20.3,38,8.9,9.4
 2003/01/01,11:15,21.6,37,9.2,9.5
 2003/01/01,11:30,22.5,36,9.4,9.5
 2003/01/01,11:45,22.8,36,9.4,9.4
 2003/01/01,12:00,23.2,36,9.5,9.4
 2003/01/01,12:15,23.2,33,9.7,9.7
 2003/01/01,12:30,22.7,35,10,9.7
 2003/01/01,12:45,18.9,37,10.4,9.7
 2003/01/01,13:00,17.8,38,10.5,9.7
 2003/01/01,13:15,17,39,10.5,9.4
 2003/01/01,13:30,16.8,41,10.4,9.4
 2003/01/01,13:45,16.5,42,10.3,9.5
 2003/01/01,14:00,20.8,34,10.1,9.5
 2003/01/01,14:15,22.7,34,10,9.5
 2003/01/01,14:30,22.8,33,10,9.5
 2003/01/01,14:45,23.3,33,10,9.5
 2003/01/01,15:00,23.1,33,10,9.3
 2003/01/01,15:15,23,33,10,9.8
 2003/01/01,15:30,22.5,34,9.6,9.8
 2003/01/01,15:45,22,33,9.4,9.9
 2003/01/01,16:00,19.6,36,9.4,9.9
 2003/01/01,16:15,18.8,37,9.4,9.9
 2003/01/01,16:30,18.1,38,9.5,9.9
 2003/01/01,16:45,17.1,40,9.9,9.9
 2003/01/01,17:00,16.7,40,10,9.9
 2003/01/01,17:15,16.1,41,10.1,10
 2003/01/01,17:30,21.6,34,10,10.1
 2003/01/01,17:45,19.4,39,10,10.1
 2003/01/01,18:00,17.7,44,10,10.1
 2003/01/01,18:15,17.1,45,10.1,10.1
 2003/01/01,18:30,16.6,46,10,10.1
 2003/01/01,18:45,18.8,39,9.9,9.8
 2003/01/01,19:00,22.7,38,10,9.8
 2003/01/01,19:15,23,42,9.9,9.8
 2003/01/01,19:30,22.6,48,9.8,9.8
 2003/01/01,19:45,23.3,41,9.7,9.9
 2003/01/01,20:00,22.3,48,9.7,9.9
 2003/01/01,20:15,19.8,53,9.5,9.9
 2003/01/01,20:30,19.2,53,9.5,9.9
 2003/01/01,20:45,22.5,45,9.4,9.9
 2003/01/01,21:00,23.1,44,9.4,9.5
 2003/01/01,21:15,22,46,9.4,9.6
 2003/01/01,21:30,19.5,51,9.4,9.7
 2003/01/01,21:45,18.7,50,9.3,9.8
 2003/01/01,22:00,18.2,50,9.2,9.8
 2003/01/01,22:15,17.5,50,9.2,9.8
 2003/01/01,22:30,17.1,49,9.1,9.8
 2003/01/01,22:45,16.7,49,9,9.8
 2003/01/01,23:00,16.3,49,8.9,9.8
 2003/01/01,23:15,16.1,49,8.8,9.8
 2003/01/01,23:30,16,48,8.7,9.8
 2003/01/01,23:45,15.5,49,8.5,9.8
 2003/01/02, 0:00,15.3,48,8.4,9.8
 2003/01/02, 0:15,15,48,8.4,9.8
 2003/01/02, 0:30,14.8,48,8.4,9.8
 2003/01/02, 0:45,14.6,48,8.2,9.8
 2003/01/02, 1:00,14.5,46,8.2,9.3
 2003/01/02, 1:15,14,47,8.1,9.4
 2003/01/02, 1:30,13.9,46,8,9.4
 2003/01/02, 1:45,13.5,47,8,9.4
 2003/01/02, 2:00,13.5,47,7.9,9.4
 2003/01/02, 2:15,13.3,48,7.7,9.4
 2003/01/02, 2:30,13.2,47,7.7,9.4
 2003/01/02, 2:45,13,47,7.6,9.4
 2003/01/02, 3:00,12.9,48,7.6,9.4
 2003/01/02, 3:15,12.7,47,7.4,9.4
 2003/01/02, 3:30,12.5,47,7.5,9.4
 2003/01/02, 3:45,12.5,47,7.4,9.4
 2003/01/02, 4:00,12.3,47,7.4,9.4
 2003/01/02, 4:15,12.3,46,7.3,9.4
 2003/01/02, 4:30,12.3,45,7.1,9.4
 2003/01/02, 4:45,12,47,7.1,9.4
 2003/01/02, 5:00,11.8,48,6.8,9.4
 2003/01/02, 5:15,12.1,47,6.8,9.4
 2003/01/02, 5:30,11.9,48,6.8,9.4
 2003/01/02, 5:45,11.8,48,6.7,9.4
 2003/01/02, 6:00,11.7,48,6.5,10.4
 2003/01/02, 6:15,11.4,49,6.5,10.3
 2003/01/02, 6:30,11.6,48,6.3,10.3
 2003/01/02, 6:45,11.3,48,6.3,10.3
 2003/01/02, 7:00,11.1,49,6.2,10.3
 2003/01/02, 7:15,10.9,49,6.1,10.2
 2003/01/02, 7:30,11,48,6.1,10.2
 2003/01/02, 7:45,10.8,50,6,10.2
 2003/01/02, 8:00,10.9,50,6,10.2
 2003/01/02, 8:15,13.2,47,6.2,10
 2003/01/02, 8:30,12.8,49,6.2,9.9
 2003/01/02, 8:45,11.6,51,6.5,9.5
 2003/01/02, 9:00,17.9,43,6.5,9.5
 2003/01/02, 9:15,20,43,6.7,9.5
 2003/01/02, 9:30,21.3,39,6.9,9.5
 2003/01/02, 9:45,22.4,38,7.6,9.6
 2003/01/02,10:00,22.5,40,8.4,9.6
 2003/01/02,10:15,19.7,46,8,9.7
 2003/01/02,10:30,16.6,44,8.1,9.7
 2003/01/02,10:45,15.7,41,8,9.7
 2003/01/02,11:00,17.9,41,7.7,9.7
 2003/01/02,11:15,20.5,44,7.8,9.7
 2003/01/02,11:30,21.4,44,7.8,9.7
 2003/01/02,11:45,21,44,8,9.7
 2003/01/02,12:00,18,48,8.2,9.7
 2003/01/02,12:15,16.9,47,8.3,9.7
 2003/01/02,12:30,15.7,47,8.3,9.7
 2003/01/02,12:45,15.2,48,8.1,9.6
 2003/01/02,13:00,14.7,48,8,9.6
 2003/01/02,13:15,14.3,49,8,9.6
 2003/01/02,13:30,14.2,48,8,9.6
 2003/01/02,13:45,13.7,49,8,9.6
 2003/01/02,14:00,13.5,50,7.9,9.6
 2003/01/02,14:15,13.4,49,7.9,9.6
 2003/01/02,14:30,13,49,7.8,9.6
 2003/01/02,14:45,13,49,7.7,9.6
 2003/01/02,15:00,12.6,50,7.7,9.6
 2003/01/02,15:15,12.7,49,7.7,9.6
 2003/01/02,15:30,12.5,49,7.7,9.6
 2003/01/02,15:45,12.2,51,7.5,9.6
 2003/01/02,16:00,12.2,50,7.4,9.5
 2003/01/02,16:15,12,51,7.2,9.5
 2003/01/02,16:30,11.9,50,7.2,9.5
 2003/01/02,16:45,11.6,52,7.1,9.5
 2003/01/02,17:00,11.6,50,6.9,9.5
 2003/01/02,17:15,11.4,52,6.8,9.5
 2003/01/02,17:30,11.3,51,6.8,9.5
 2003/01/02,17:45,11.2,51,6.7,9.5
 2003/01/02,18:00,11,52,6.5,9.5
 2003/01/02,18:15,10.7,52,6.4,9.5
 2003/01/02,18:30,10.7,52,6.5,9.4
 2003/01/02,18:45,10.5,52,6.3,9.4
 2003/01/02,19:00,10.4,52,6.3,9.4
 2003/01/02,19:15,10.4,52,6.2,9.4
 2003/01/02,19:30,10.2,53,6.2,9.4
 2003/01/02,19:45,10.3,52,6.2,9.4
 2003/01/02,20:00,10.1,53,6.2,9.4
 2003/01/02,20:15,10.1,52,6.2,9.3
 2003/01/02,20:30,9.8,54,6.1,9.3
 2003/01/02,20:45,9.8,53,6,9.3
 2003/01/02,21:00,9.6,53,5.9,9.3
 2003/01/02,21:15,11.4,48,5.4,9.3
 2003/01/02,21:30,17.3,43,5.5,9.5
 2003/01/02,21:45,19.3,43,5.7,9.6
 2003/01/02,22:00,20.5,45,5.9,9.6
 2003/01/02,22:15,21.5,44,5.9,9.5
 2003/01/02,22:30,21.8,42,6,9.5
 2003/01/02,22:45,23.2,42,6,9.5
 2003/01/02,23:00,23.9,40,6,9.5
 2003/01/02,23:15,24.3,41,6.2,9.5
 2003/01/02,23:30,23.8,42,6.1,9.4
 2003/01/02,23:45,24,40,6.2,9.1
 2003/01/03, 0:00,21.1,46,6.2,9.1
 2003/01/03, 0:15,19.1,51,6.2,9
 2003/01/03, 0:30,18,53,6.2,9
 2003/01/03, 0:45,17.4,53,6.2,9
 2003/01/03, 1:00,16.7,53,6.1,9
 2003/01/03, 1:15,16.4,52,6.1,9
 2003/01/03, 1:30,15.9,53,5.9,9
 2003/01/03, 1:45,15.3,53,5.9,9
 2003/01/03, 2:00,15.3,53,5.9,9
 2003/01/03, 2:15,15.2,52,5.9,9
 2003/01/03, 2:30,14.7,52,6,9
 2003/01/03, 2:45,14.5,53,6,8.9
 2003/01/03, 3:00,14,54,6,8.9
 2003/01/03, 3:15,13.9,53,5.9,8.9
 2003/01/03, 3:30,13.6,54,5.8,8.9
 2003/01/03, 3:45,13.6,53,5.8,8.9
 2003/01/03, 4:00,13.2,54,5.8,8.9
 2003/01/03, 4:15,13.1,54,5.8,8.9
 2003/01/03, 4:30,12.7,54,5.8,8.9
 2003/01/03, 4:45,12.8,54,5.8,8.9
 2003/01/03, 5:00,12.4,55,5.7,8.9
 2003/01/03, 5:15,12.4,54,5.7,8.9
 2003/01/03, 5:30,12.1,55,5.5,8.9
 2003/01/03, 5:45,12.2,54,5.5,8.8
 2003/01/03, 6:00,11.9,55,5.6,8.8
 2003/01/03, 6:15,12,54,5.5,8.8
 2003/01/03, 6:30,11.7,55,5.4,8.8
 2003/01/03, 6:45,11.6,54,5.5,10.1
 2003/01/03, 7:00,11.4,55,5.5,10.1
 2003/01/03, 7:15,11.5,55,5.3,10.1
 2003/01/03, 7:30,11.2,56,5.3,10
 2003/01/03, 7:45,15,48,5.4,10
 2003/01/03, 8:00,18.4,48,5.4,9.6
 2003/01/03, 8:15,20.9,49,5.6,9.6
 2003/01/03, 8:30,22.6,48,5.8,9.6
 2003/01/03, 8:45,23.2,46,5.8,9.5
 2003/01/03, 9:00,23.1,44,6,9.5
 2003/01/03, 9:15,21.7,39,6.3,9.5
 2003/01/03, 9:30,23.3,40,6.4,9.5
 2003/01/03, 9:45,23.2,43,6.3,9.5
 2003/01/03,10:00,22.8,47,6.3,9.3
 2003/01/03,10:15,23.7,48,6.4,9.3
 2003/01/03,10:30,20.2,46,7.1,9.5
 2003/01/03,10:45,18,46,7.1,9.5
 2003/01/03,11:00,17.1,48,7.2,9.4
 2003/01/03,11:15,16.3,49,7.3,9.4
 2003/01/03,11:30,15.7,50,7.4,9.4
 2003/01/03,11:45,15.1,51,7.2,9.4
 2003/01/03,12:00,19.8,49,7.1,9.4
 2003/01/03,12:15,21.6,54,7,9.4
 2003/01/03,12:30,22.4,54,7,8.1
 2003/01/03,12:45,22.8,53,7,9
 2003/01/03,13:00,23.5,49,7,9
 2003/01/03,13:15,23.3,55,7.1,9
 2003/01/03,13:30,23.4,54,7.2,9
 2003/01/03,13:45,23.2,57,7.4,9
 2003/01/03,14:00,23.5,54,7.5,9
 2003/01/03,14:15,23.4,56,7.4,9
 2003/01/03,14:30,21,66,7.5,9
 2003/01/03,14:45,20.5,63,7.7,9
 2003/01/03,15:00,20.2,65,7.7,9
 2003/01/03,15:15,19.9,63,7.7,9
 2003/01/03,15:30,19.3,60,7.7,9.6
 2003/01/03,15:45,21.7,52,7.6,9.6
 2003/01/03,16:00,22.7,50,7.7,8.6
 2003/01/03,16:15,22.5,51,7.5,9.2
 2003/01/03,16:30,23.2,50,7.5,9.2
 2003/01/03,16:45,22.9,52,7.6,9
 2003/01/03,17:00,23.2,50,7.8,9.7
 2003/01/03,17:15,21.7,52,7.9,9.6
 2003/01/03,17:30,20.3,56,7.8,9.6
 2003/01/03,17:45,19.8,55,7.8,9.6
 2003/01/03,18:00,19.5,55,7.7,9.6
 2003/01/03,18:15,19,56,7.7,9.6
 2003/01/03,18:30,18.9,64,7.7,9.4
 2003/01/03,18:45,22.5,49,7.9,9.4
 2003/01/03,19:00,23.2,50,8,9.4
 2003/01/03,19:15,22.7,53,8.2,9.4
 2003/01/03,19:30,23.2,48,8.6,9
 2003/01/03,19:45,23,50,8.9,9.3
 2003/01/03,20:00,21.7,57,9.1,9.3
 2003/01/03,20:15,21.1,67,9.1,9.3
 2003/01/03,20:30,20.5,65,9,9.3
 2003/01/03,20:45,23,51,9,9.3
 2003/01/03,21:00,22.9,53,9,9.3
 2003/01/03,21:15,23,53,9,9.4
 2003/01/03,21:30,22.7,54,9.2,9.4
 2003/01/03,21:45,22,57,9.2,9.5
 2003/01/03,22:00,20.9,58,9.3,9.4
 2003/01/03,22:15,20.2,55,9.4,9.4
 2003/01/03,22:30,20,52,9.4,9.4
 2003/01/03,22:45,19.3,51,9.3,9.4
 2003/01/03,23:00,19.1,49,9.4,9.4
 2003/01/03,23:15,18.3,50,9.5,9
 2003/01/03,23:30,18.3,49,9.4,9.1
 2003/01/03,23:45,17.7,51,9.5,9.1
 2003/01/04, 0:00,17.4,51,9.4,9.1
 2003/01/04, 0:15,17.3,51,9.5,9.2
 2003/01/04, 0:30,16.8,51,9.5,8.9
 2003/01/04, 0:45,16.7,52,9.5,9.2
 2003/01/04, 1:00,16.4,52,9.4,9.2
 2003/01/04, 1:15,16.2,52,9.4,9.2
 2003/01/04, 1:30,16,51,9.3,9.2
 2003/01/04, 1:45,15.7,50,9.3,9.2
 2003/01/04, 2:00,15.4,50,9,9.2
 2003/01/04, 2:15,15,50,8.8,9.2
 2003/01/04, 2:30,14.8,50,8.8,9.2
 2003/01/04, 2:45,14.6,51,8.9,8.9
 2003/01/04, 3:00,14.3,50,8.9,8.9
 2003/01/04, 3:15,14.2,49,8.9,9
 2003/01/04, 3:30,14.1,49,8.8,9
 2003/01/04, 3:45,13.8,49,8.6,9
 2003/01/04, 4:00,13.6,48,8.6,9
 2003/01/04, 4:15,13.2,49,8.6,9
 2003/01/04, 4:30,13.1,49,8.5,9
 2003/01/04, 4:45,13.1,49,8.3,9.1
 2003/01/04, 5:00,12.7,49,8.2,9.1
 2003/01/04, 5:15,12.8,49,8.2,8.9
 2003/01/04, 5:30,12.4,49,8,8.9
 2003/01/04, 5:45,12.5,48,8.1,8.9
 2003/01/04, 6:00,12.3,48,7.9,8.9
 2003/01/04, 6:15,12.1,52,7.8,9.7
 2003/01/04, 6:30,11.9,49,7.6,9.7
 2003/01/04, 6:45,11.7,48,7.6,9.7
 2003/01/04, 7:00,11.5,48,7.4,9.7
 2003/01/04, 7:15,11.4,45,7.8,9.1
 2003/01/04, 7:30,10.7,39,8,9.1
 2003/01/04, 7:45,10.3,39,8.1,9.1
 2003/01/04, 8:00,10,39,8.1,9.1
 2003/01/04, 8:15,15,36,7.1,9.1
 2003/01/04, 8:30,19,40,6.8,9.6
 2003/01/04, 8:45,20.7,41,6.8,9.6
 2003/01/04, 9:00,21.5,45,7,9.6
 2003/01/04, 9:15,21.1,48,7.4,9.6
 2003/01/04, 9:30,23,47,7.1,9.7
 2003/01/04, 9:45,22.9,47,7,9.4
 2003/01/04,10:00,22.8,48,7.1,9.2
 2003/01/04,10:15,22,45,7.4,9.3
 2003/01/04,10:30,22.1,48,7.2,9.4
 2003/01/04,10:45,22.2,45,7.1,9.3
 2003/01/04,11:00,20.2,43,7.1,9.3
 2003/01/04,11:15,17.6,45,7.4,9.1
 2003/01/04,11:30,17.1,46,6.4,9.1
 2003/01/04,11:45,16.6,49,6.8,8.9
 2003/01/04,12:00,16.5,51,7.9,9
 2003/01/04,12:15,16,53,8,9.4
 2003/01/04,12:30,20.6,47,8.3,9.4
 2003/01/04,12:45,22.1,46,8.2,9.4
 2003/01/04,13:00,23,41,8.6,9.4
 2003/01/04,13:15,22.5,43,9.2,9.7
 2003/01/04,13:30,22.6,44,9.2,9.7
 2003/01/04,13:45,21.3,47,9.3,9.3
 2003/01/04,14:00,18.8,54,9.2,9.3
 2003/01/04,14:15,18.3,53,8.9,9.3
 2003/01/04,14:30,17.4,55,9,9.3
 2003/01/04,14:45,17,54,9,9
 2003/01/04,15:00,16.5,54,8.9,9
 2003/01/04,15:15,16.5,52,8.6,9.1
 2003/01/04,15:30,16.2,49,9.1,9.5
 2003/01/04,15:45,15.7,48,9,9.6
 2003/01/04,16:00,15,46,8.9,9.6
 2003/01/04,16:15,14.9,44,8.7,9.6
 2003/01/04,16:30,14.9,42,8.6,9.6
 2003/01/04,16:45,16.6,42,8.3,9.6
 2003/01/04,17:00,19.1,38,8.3,9.5
 2003/01/04,17:15,15.7,45,8.3,9.5
 2003/01/04,17:30,22,39,8.1,9.5
 2003/01/04,17:45,23.1,41,7.8,9.5
 2003/01/04,18:00,23.3,38,7.7,9.5
 2003/01/04,18:15,23.2,33,7.8,9.6
 2003/01/04,18:30,22.9,36,7.6,9.7
 2003/01/04,18:45,20.9,39,7.7,9.7
 2003/01/04,19:00,23.2,36,7.5,9.4
 2003/01/04,19:15,23.1,37,7.4,9.4
 2003/01/04,19:30,23.3,40,7.2,9.4
 2003/01/04,19:45,23.9,40,6.9,9.4
 2003/01/04,20:00,23.8,41,6.5,9.2
 2003/01/04,20:15,23.7,42,6.5,9.3
 2003/01/04,20:30,23.3,44,6.5,9.7
 2003/01/04,20:45,23.3,39,6.4,9.7
 2003/01/04,21:00,21.5,36,6.5,9.7
 2003/01/04,21:15,23.3,34,6.5,9.7
 2003/01/04,21:30,22.7,39,6.3,9.3
 2003/01/04,21:45,21.9,42,6.3,9.5
 2003/01/04,22:00,20,47,6.2,9.5
 2003/01/04,22:15,18.8,49,6.2,9.2
 2003/01/04,22:30,21,43,6.4,9.5
 2003/01/04,22:45,23.5,41,6.3,9.5
 2003/01/04,23:00,21.5,44,6.4,9
 2003/01/04,23:15,18.6,44,6.4,9
 2003/01/04,23:30,17.7,42,6.3,9
 2003/01/04,23:45,16.8,42,6.2,9
 2003/01/05, 0:00,16.2,43,6.2,9
 2003/01/05, 0:15,15.6,43,6.2,9
 2003/01/05, 0:30,15.1,43,6.2,9
 2003/01/05, 0:45,14.6,43,5.9,9
 2003/01/05, 1:00,14.4,44,6,9
 2003/01/05, 1:15,14,45,5.8,9
 2003/01/05, 1:30,13.9,46,5.8,9
 2003/01/05, 1:45,13.5,46,5.6,9
 2003/01/05, 2:00,13.1,46,5.6,9
 2003/01/05, 2:15,12.7,46,5.4,9
 2003/01/05, 2:30,12.4,47,5.3,9
 2003/01/05, 2:45,12.2,46,5.3,9.5
 2003/01/05, 3:00,11.8,45,5.2,9.5
 2003/01/05, 3:15,11.5,46,5.3,9.5
 2003/01/05, 3:30,11.4,45,5.3,9.5
 2003/01/05, 3:45,10.9,45,5.2,9.5
 2003/01/05, 4:00,10.9,44,4.9,9.4
 2003/01/05, 4:15,10.5,44,4.9,9.4
 2003/01/05, 4:30,10.4,44,4.8,9.4
 2003/01/05, 4:45,10.1,44,4.8,9.4
 2003/01/05, 5:00,9.9,43,4.6,9.4
 2003/01/05, 5:15,9.6,44,4.4,9.3
 2003/01/05, 5:30,9.6,44,4.4,9.3
 2003/01/05, 5:45,9.2,44,4.4,9.3
 2003/01/05, 6:00,9.2,43,4.4,9.3
 2003/01/05, 6:15,8.8,44,4.1,9.2
 2003/01/05, 6:30,8.8,44,4.1,8.4
 2003/01/05, 6:45,8.9,51,4,8.5
 2003/01/05, 7:00,9,52,3.9,8.5
 2003/01/05, 7:15,14.7,42,3.9,8.5
 2003/01/05, 7:30,17.1,42,3.9,9.2
 2003/01/05, 7:45,18.5,44,3.9,9.9
 2003/01/05, 8:00,20,43,4.1,9.9
 2003/01/05, 8:15,20.9,43,4.2,9.5
 2003/01/05, 8:30,16.1,48,4.4,9.5
 2003/01/05, 8:45,13.6,42,4.5,9.5
 2003/01/05, 9:00,12.5,44,4.6,9.4
 2003/01/05, 9:15,11.8,45,4.6,9.4
 2003/01/05, 9:30,11.2,45,4.6,9.4
 2003/01/05, 9:45,16.2,39,4.5,8.7
 2003/01/05,10:00,19.2,43,4.4,8.7
 2003/01/05,10:15,20.5,46,4.7,8.7
 2003/01/05,10:30,21.5,43,4.7,9.2
 2003/01/05,10:45,22,43,4.8,9.2
 2003/01/05,11:00,22,39,4.9,9.1
 2003/01/05,11:15,18.8,37,5.1,9.6
 2003/01/05,11:30,15.7,42,5.5,9.5
 2003/01/05,11:45,14.8,42,5.7,9.5
 2003/01/05,12:00,14.1,41,5.7,9.5
 2003/01/05,12:15,13.2,42,5.8,9.4
 2003/01/05,12:30,12.5,43,5.6,9.4
 2003/01/05,12:45,12.4,42,5.5,9.4
 2003/01/05,13:00,12.2,41,5.6,9.3
 2003/01/05,13:15,11.6,43,5.5,9.3
 2003/01/05,13:30,11.3,43,5.6,9.3
 2003/01/05,13:45,10.8,44,5.5,9.2
 2003/01/05,14:00,10.5,45,5.4,9.2
 2003/01/05,14:15,10.4,44,5.4,9.2
 2003/01/05,14:30,10.1,45,5.3,9.1
 2003/01/05,14:45,10,44,5.2,9.1
 2003/01/05,15:00,9.5,45,5.2,9
 2003/01/05,15:15,9.6,44,5.3,9
 2003/01/05,15:30,9.3,45,5.1,9
 2003/01/05,15:45,9,45,5.1,8.9
 2003/01/05,16:00,9.1,45,5.1,8.9
 2003/01/05,16:15,16.6,41,5.1,8.9
 2003/01/05,16:30,18.2,42,5,9.4
 2003/01/05,16:45,19.5,40,4.8,9.5
 2003/01/05,17:00,20.8,41,4.8,9.4
 2003/01/05,17:15,21.2,40,4.8,9.7
 2003/01/05,17:30,21.6,38,4.9,9.6
 2003/01/05,17:45,19.6,38,5,9.4
 2003/01/05,18:00,22.6,40,4.9,9.7
 2003/01/05,18:15,21.7,42,5,9.6
 2003/01/05,18:30,22.2,45,4.8,9
 2003/01/05,18:45,22.8,45,4.8,9.1
 2003/01/05,19:00,20.7,49,4.7,9.1
 2003/01/05,19:15,18.4,55,4.7,9
 2003/01/05,19:30,17.9,58,4.5,9
 2003/01/05,19:45,17.1,58,4.6,9
 2003/01/05,20:00,18.9,50,4.5,8.9
 2003/01/05,20:15,23.1,44,4.4,8.9
 2003/01/05,20:30,24.1,43,4.4,8.9
 2003/01/05,20:45,19.3,49,4.6,9.1
 2003/01/05,21:00,17.5,51,4.6,9.2
 2003/01/05,21:15,16.8,51,4.5,9.1
 2003/01/05,21:30,16,51,4.5,9.1
 2003/01/05,21:45,15.5,51,4.6,9.1
 2003/01/05,22:00,15,52,4.7,9
 2003/01/05,22:15,14.9,52,4.6,8.8
 2003/01/05,22:30,14.6,54,4.6,8.9
 2003/01/05,22:45,14.6,54,4.4,8.8
 2003/01/05,23:00,14.5,54,4.4,8.8
 2003/01/05,23:15,13.9,55,4.4,8.8
 2003/01/05,23:30,13.7,54,4.3,8.7
 2003/01/05,23:45,13.3,54,4.3,8.2
 2003/01/06, 0:00,13.1,54,4.2,8.1
 2003/01/06, 0:15,12.6,54,4.1,8.1
 2003/01/06, 0:30,12.4,51,4,8.2
 2003/01/06, 0:45,12.1,51,4,8.2
 2003/01/06, 1:00,12,51,4,8.2
 2003/01/06, 1:15,11.7,51,3.9,8.2
 2003/01/06, 1:30,11.5,51,3.9,8.2
 2003/01/06, 1:45,11.2,51,3.9,8.1
 2003/01/06, 2:00,11,52,3.8,8.1
 2003/01/06, 2:15,10.7,52,3.8,7.9
 2003/01/06, 2:30,10.6,54,3.8,7.9
 2003/01/06, 2:45,10.4,54,3.8,7.9
 2003/01/06, 3:00,10.3,55,3.8,7.9
 2003/01/06, 3:15,10,55,3.8,7.9
 2003/01/06, 3:30,10.1,56,3.6,7.8
 2003/01/06, 3:45,9.8,56,3.7,7.8
 2003/01/06, 4:00,9.8,56,3.7,7.8
 2003/01/06, 4:15,9.5,57,3.7,7.8
 2003/01/06, 4:30,9.6,58,3.7,7.9
 2003/01/06, 4:45,9.3,61,3.5,7.9
 2003/01/06, 5:00,9.3,63,3.5,7.8
 2003/01/06, 5:15,9.5,60,3.5,7.8
 2003/01/06, 5:30,15.9,47,3.5,7.8
 2003/01/06, 5:45,11.5,73,3.6,7.7
 2003/01/06, 6:00,10.7,69,3.6,8.7
 2003/01/06, 6:15,17.4,47,3.6,8.7
 2003/01/06, 6:30,19.4,48,3.4,8.7
 2003/01/06, 6:45,19.2,43,3.7,8.8
 2003/01/06, 7:00,18.4,39,3.8,8.7
 2003/01/06, 7:15,14.6,43,3.8,8.7
 2003/01/06, 7:30,13.6,43,3.8,8.7
 2003/01/06, 7:45,18.9,37,3.8,8.6
 2003/01/06, 8:00,20.9,40,3.9,8.2
 2003/01/06, 8:15,21.6,42,4,8.6
 2003/01/06, 8:30,22.1,41,4.1,9
 2003/01/06, 8:45,19.4,48,4.1,9
 2003/01/06, 9:00,22.6,44,4.3,9
 2003/01/06, 9:15,20.9,44,4.4,9
 2003/01/06, 9:30,13.5,32,4.8,9
 2003/01/06, 9:45,11.8,34,5.3,8.9
 2003/01/06,10:00,11.2,38,6.2,8.9
 2003/01/06,10:15,9.3,39,6.5,8.7
 2003/01/06,10:30,10.5,39,6,8.7
 2003/01/06,10:45,16.5,32,5.7,8.7
 2003/01/06,11:00,19,37,5.6,8.3
 2003/01/06,11:15,21,37,5.6,8.3
 2003/01/06,11:30,21.3,34,5.8,8.6
 2003/01/06,11:45,20.7,36,5.8,8.6
 2003/01/06,12:00,21.6,37,5.8,8.6
 2003/01/06,12:15,22,37,6,8.6
 2003/01/06,12:30,18,34,6.1,8.6
 2003/01/06,12:45,20.5,33,6.2,8.5
 2003/01/06,13:00,20.7,30,6.2,8.5
 2003/01/06,13:15,18,37,6.2,8.5
 2003/01/06,13:30,21.5,34,6.5,9.5
 2003/01/06,13:45,22.2,33,6.6,8.9
 2003/01/06,14:00,22.9,34,6.7,8.9
 2003/01/06,14:15,20.7,38,6.8,9.2
 2003/01/06,14:30,18.5,43,6.9,9.2
 2003/01/06,14:45,17.6,44,6.9,8.7
 2003/01/06,15:00,16.9,43,6.9,8.9
 2003/01/06,15:15,16.4,45,6.9,8.9
 2003/01/06,15:30,16.1,62,6.8,8.9
 2003/01/06,15:45,15.8,53,7,8.8
 2003/01/06,16:00,15.6,50,7,8.8
 2003/01/06,16:15,21.5,37,7,9.3
 2003/01/06,16:30,21.2,35,7,9.3
 2003/01/06,16:45,22,31,7,9.2
 2003/01/06,17:00,21.8,30,6.9,9.2
 2003/01/06,17:15,18,34,7.2,8.6
 2003/01/06,17:30,16.4,40,7.4,8.6
 2003/01/06,17:45,15.7,40,7.3,8.6
 2003/01/06,18:00,14.6,43,7.1,8.6
 2003/01/06,18:15,14.7,41,7,8.6
 2003/01/06,18:30,14.3,42,6.7,8.6
 2003/01/06,18:45,14,42,6.7,8.6
 2003/01/06,19:00,13.5,43,6.6,8.5
 2003/01/06,19:15,13.3,43,6.5,8.5
 2003/01/06,19:30,13.1,44,6.5,8.5
 2003/01/06,19:45,12.9,44,6.6,8.5
 2003/01/06,20:00,12.4,45,6.5,8.5
 2003/01/06,20:15,12.5,45,6.5,8.5
 2003/01/06,20:30,16.4,37,6.5,8.1
 2003/01/06,20:45,20.5,39,6.5,8.1
 2003/01/06,21:00,22.8,44,6.4,8.1
 2003/01/06,21:15,19.8,50,6.3,8.1
 2003/01/06,21:30,22.3,42,6.5,8.1
 2003/01/06,21:45,23.7,41,6.5,8.1
 2003/01/06,22:00,23.3,36,6.6,8
 2003/01/06,22:15,23.2,37,6.6,8
 2003/01/06,22:30,20.1,45,6.5,8.1
 2003/01/06,22:45,19.5,53,6.5,8
 2003/01/06,23:00,18.1,52,6.5,8
 2003/01/06,23:15,18,65,6.5,8
 2003/01/06,23:30,17.4,57,6.6,8
 2003/01/06,23:45,17.1,56,6.6,8
 2003/01/07, 0:00,16.5,58,6.6,8
 2003/01/07, 0:15,16.2,55,6.6,8.2
 2003/01/07, 0:30,15.9,54,6.5,8.2
 2003/01/07, 0:45,15.9,52,6.6,8.2
 2003/01/07, 1:00,15.4,53,6.5,8.2
 2003/01/07, 1:15,15.2,53,6.5,8.2
 2003/01/07, 1:30,14.8,54,6.5,8.2
 2003/01/07, 1:45,14.6,53,6.5,8.2
 2003/01/07, 2:00,14.4,54,6.5,8.2
 2003/01/07, 2:15,14.4,53,6.4,8.2
 2003/01/07, 2:30,14.2,53,6.4,8.2
 2003/01/07, 2:45,13.9,54,6.2,8.2
 2003/01/07, 3:00,13.7,53,6.2,8.2
 2003/01/07, 3:15,13.4,54,6.1,8.1
 2003/01/07, 3:30,13.3,54,6,8.1
 2003/01/07, 3:45,13.1,54,5.9,8.1
 2003/01/07, 4:00,13,54,5.8,8.1
 2003/01/07, 4:15,12.9,54,5.7,8.1
 2003/01/07, 4:30,12.8,53,5.6,8.1
 2003/01/07, 4:45,12.6,54,5.6,8.1
 2003/01/07, 5:00,12.4,54,5.5,8.1
 2003/01/07, 5:15,12.1,55,5.4,8.1
 2003/01/07, 5:30,12.1,54,5.3,8.1
 2003/01/07, 5:45,12,54,5.3,8.1
 2003/01/07, 6:00,12,54,5.3,7.5
 2003/01/07, 6:15,18.5,43,5.3,7.8
 2003/01/07, 6:30,19.6,39,5.4,7.8
 2003/01/07, 6:45,19.7,37,5.5,8.5
 2003/01/07, 7:00,21.7,37,5.5,8.5
 2003/01/07, 7:15,22.2,38,5.6,8.5
 2003/01/07, 7:30,17.4,49,5.7,8.5
 2003/01/07, 7:45,16.7,50,5.7,8.5
 2003/01/07, 8:00,16.3,51,5.8,8.5
 2003/01/07, 8:15,15.4,53,5.8,8.4
 2003/01/07, 8:30,21.2,42,5.8,8.1
 2003/01/07, 8:45,22.6,41,6,8.1
 2003/01/07, 9:00,23.5,43,6.2,8.1
 2003/01/07, 9:15,23.6,45,6.5,8.1
 2003/01/07, 9:30,22.8,44,6.8,8.1
 2003/01/07, 9:45,19.5,49,7.5,7.8
 2003/01/07,10:00,18.6,50,8.3,8.1
 2003/01/07,10:15,17.9,52,8.6,8.1
 2003/01/07,10:30,17.1,58,8.8,8.4
 2003/01/07,10:45,16.5,54,8.7,8.5
 2003/01/07,11:00,16,53,8.6,8.4
 2003/01/07,11:15,15.6,52,8.6,8.4
 2003/01/07,11:30,15,53,8.6,8.4
 2003/01/07,11:45,14.8,53,8.6,8.4
 2003/01/07,12:00,14.4,52,8.6,8.4
 2003/01/07,12:15,14.2,51,8.9,8.4
 2003/01/07,12:30,14,52,8.9,8.4
 2003/01/07,12:45,14,51,8.8,8.4
 2003/01/07,13:00,15.6,48,8.6,8.6
 2003/01/07,13:15,21.4,42,8.7,8.7
 2003/01/07,13:30,21.5,44,8.8,8.3
 2003/01/07,13:45,22.4,45,8.7,8.4
 2003/01/07,14:00,23.3,45,8.9,8.4
 2003/01/07,14:15,21.5,49,8.9,8.4
 2003/01/07,14:30,19.1,55,8.9,8.4
 2003/01/07,14:45,18.1,58,9,8
 2003/01/07,15:00,17.7,54,9,8.6
 2003/01/07,15:15,17.2,55,9,8.6
 2003/01/07,15:30,16.9,53,9,8.7
 2003/01/07,15:45,16.6,55,8.9,8.8
 2003/01/07,16:00,21,41,8.8,8.8
 2003/01/07,16:15,23.6,41,8.9,8.8
 2003/01/07,16:30,23.2,44,8.9,8.8
 2003/01/07,16:45,24.2,43,8.8,8.8
 2003/01/07,17:00,23.9,43,8.6,8.8
 2003/01/07,17:15,23.9,45,8.6,8.9
 2003/01/07,17:30,22.1,48,8.5,8.2
 2003/01/07,17:45,20.6,51,8.4,8.2
 2003/01/07,18:00,19.6,52,8.4,8.2
 2003/01/07,18:15,19.2,51,8.3,8.2
 2003/01/07,18:30,18.5,51,8.1,8.2
 2003/01/07,18:45,22.6,39,8.1,8.2
 2003/01/07,19:00,23.6,42,8.1,8.2
 2003/01/07,19:15,24.1,40,8.1,8.2
 2003/01/07,19:30,24.7,38,8,8.2
 2003/01/07,19:45,24.7,36,7.9,8.4
 2003/01/07,20:00,25.2,34,7.7,8.4
 2003/01/07,20:15,25.1,32,7.9,8.4
 2003/01/07,20:30,24.8,31,8.1,8.3
 2003/01/07,20:45,24.7,29,8,8.4
 2003/01/07,21:00,24.7,29,8.2,8.4
 2003/01/07,21:15,24.5,32,8.1,8.4
 2003/01/07,21:30,25.1,31,8.1,8.4
 2003/01/07,21:45,24.1,34,8.1,8.4
 2003/01/07,22:00,24,36,8,8.4
 2003/01/07,22:15,23.3,36,8,8.4
 2003/01/07,22:30,23.9,37,8.1,8.4
 2003/01/07,22:45,23.8,38,7.9,8.5
 2003/01/07,23:00,23.9,38,7.8,8.5
 2003/01/07,23:15,22.1,38,7.6,8.5
 2003/01/07,23:30,20.2,38,7.5,8.5
 2003/01/07,23:45,19.2,33,7.4,8.5
 2003/01/08, 0:00,18.5,31,7.1,8.5
 2003/01/08, 0:15,18,30,7,8.5
 2003/01/08, 0:30,17.7,30,6.8,8.6
 2003/01/08, 0:45,17,31,6.7,8.6
 2003/01/08, 1:00,16.5,31,6.6,8.6
 2003/01/08, 1:15,16.3,30,6.5,8.6
 2003/01/08, 1:30,15.9,31,6.4,8.6
 2003/01/08, 1:45,15.5,31,6.2,8.6
 2003/01/08, 2:00,15.1,31,6.2,8.6
 2003/01/08, 2:15,14.6,32,6.1,8.6
 2003/01/08, 2:30,14.2,32,5.9,8.7
 2003/01/08, 2:45,13.9,33,5.8,8.7
 2003/01/08, 3:00,13.6,33,5.6,8.7
 2003/01/08, 3:15,13.3,33,5.6,8.7
 2003/01/08, 3:30,12.9,38,5.6,8.7
 2003/01/08, 3:45,12.6,39,5.5,8.8
 2003/01/08, 4:00,12.4,37,5.3,8.8
 2003/01/08, 4:15,12.1,36,5.3,8.8
 2003/01/08, 4:30,11.9,36,5.3,8.8
 2003/01/08, 4:45,11.6,36,5.2,8.8
 2003/01/08, 5:00,11.5,36,5.2,8.8
 2003/01/08, 5:15,11.1,36,5,8.8
 2003/01/08, 5:30,11,36,4.9,8.8
 2003/01/08, 5:45,10.7,37,4.8,8.8